Temp_Advection
nan nan nan nan nan nan nan nan nan nan nan nan nan nan nan nan nan nan nan nan nan nan nan nan nan nan nan nan nan nan nan nan nan nan nan nan nan nan nan nan nan nan nan nan nan nan nan nan nan nan nan nan nan nan nan nan nan nan nan nan nan nan nan
nan 0 1 0 -0 -1 -1 -0 1 2 2 1 1 1 1 1 0 1 1 1 1 1 1 1 1 1 1 1 1 1 1 1 1 1 1 1 1 1 1 1 0 1 1 0 1 1 1 1 1 -0 -0 0 0 0 -0 -0 -1 -0 0 0 0 0 nan
nan 0 -0 -0 -0 -0 -0 0 1 2 2 1 1 0 0 1 0 1 1 1 1 1 2 2 2 2 2 1 1 1 1 1 1 1 1 1 1 1 1 1 1 1 0 0 0 1 0 1 1 1 0 0 -0 -0 -0 -0 -0 -0 -0 0 0 0 nan
nan -0 -1 -0 0 0 0 0 1 1 1 1 1 1 0 0 1 1 1 1 2 2 2 2 2 2 1 1 1 1 1 1 0 1 1 1 1 1 1 1 1 1 1 1 -0 -0 -0 0 1 1 1 0 0 -0 -0 -0 -0 -0 -0 0 0 0 nan
nan -0 -0 -0 1 1 1 1 0 -0 0 1 1 1 1 0 1 1 1 2 2 1 1 1 1 1 1 1 1 1 1 0 1 1 1 1 1 1 1 1 1 1 1 0 -0 -1 -0 0 0 0 1 1 1 0 -0 -0 -0 -0 -0 0 0 0 nan
nan -0 -0 0 1 1 1 1 0 -0 -0 0 0 1 1 1 1 1 1 1 1 1 1 1 1 1 1 1 1 1 0 1 1 2 1 1 1 2 2 1 1 1 1 0 -0 -0 -0 -0 -0 0 1 1 1 0 -0 -0 0 0 0 -0 -0 0 nan
nan 0 0 1 1 1 1 1 0 0 -0 -0 0 0 1 0 1 1 1 1 1 1 1 1 1 1 1 1 1 1 1 1 2 2 1 1 2 2 2 1 1 1 0 -0 -0 -0 -0 -0 0 0 0 1 1 0 -1 -0 0 0 0 0 -0 -0 nan
nan 1 1 1 1 1 1 1 0 0 -0 -1 -0 0 0 0 0 1 1 1 1 1 1 1 1 1 1 1 1 1 2 2 2 2 2 1 2 2 1 1 1 0 -0 0 -0 -0 -0 -0 -0 -0 -0 0 0 -0 0 1 1 -1 -0 1 0 -0 nan
nan 2 2 2 2 1 1 0 -0 0 -0 -0 -0 -0 -0 0 0 1 1 1 1 1 1 1 1 1 1 1 1 2 2 2 2 2 2 1 1 1 1 1 1 0 0 0 0 -0 -0 -0 -1 -1 -1 -0 -0 -0 1 2 1 -1 -0 0 1 0 nan
nan 1 1 1 2 2 2 1 1 1 0 0 -0 -0 -0 -0 0 0 1 1 1 1 1 1 1 1 1 1 2 2 2 2 1 1 2 2 1 1 1 1 1 0 0 0 0 0 0 -1 -2 -1 -1 -0 0 1 1 1 0 0 0 0 -0 -0 nan
nan 0 0 0 1 1 2 2 2 2 1 1 0 -0 -0 -0 0 1 1 1 1 1 1 1 0 1 1 1 2 2 2 1 1 2 2 1 0 0 0 1 1 0 0 0 0 0 0 -1 -2 -1 -0 -0 0 1 1 1 1 1 1 1 0 -1 nan
nan 0 1 1 0 -0 0 1 2 3 2 1 1 0 -0 -0 0 1 1 1 1 1 1 1 0 0 1 1 2 2 2 1 1 2 1 1 0 0 1 1 0 0 1 1 1 0 -0 -2 -2 -1 -0 -0 0 1 1 0 0 0 1 1 0 -1 nan
nan 0 1 1 -0 -0 -0 1 2 3 2 2 1 0 -0 -0 0 0 1 1 1 1 1 1 0 0 1 1 2 2 2 1 1 1 1 1 0 0 0 -0 -0 1 1 1 0 -0 -2 -1 -1 -1 -1 1 1 1 0 -0 -0 1 1 1 -0 -0 nan
nan 1 1 1 -1 -1 -1 0 2 3 2 2 2 1 -0 -0 0 1 1 1 1 1 1 1 0 0 1 1 1 1 1 1 2 1 1 1 0 -0 -1 -1 0 1 1 0 -0 -1 -1 0 0 -0 0 1 1 0 -0 -0 -0 1 1 1 0 1 nan
nan 1 2 2 1 -1 -2 -0 1 2 2 2 2 1 1 -0 0 1 0 0 1 0 1 1 0 1 1 1 1 1 1 2 1 1 1 1 0 -0 -0 -1 0 1 1 0 -0 0 1 1 0 0 1 1 0 -0 -0 -0 0 1 1 0 1 1 nan
nan -0 1 3 3 0 -1 0 1 1 1 2 2 2 2 0 0 1 0 -0 0 0 1 1 1 1 1 1 1 2 1 1 1 1 1 0 -0 -0 -0 0 1 2 1 -0 0 1 2 1 0 1 1 1 0 -0 0 1 1 0 -1 0 1 -1 nan
nan -1 -1 0 2 1 -0 1 3 1 0 1 2 2 2 1 0 1 1 0 -0 -0 0 0 0 1 1 1 2 1 1 1 0 0 0 -0 0 0 -0 1 2 1 -0 0 1 1 1 0 0 1 1 0 0 0 1 1 -0 -1 -0 1 0 -2 nan
nan -1 -0 -1 -0 0 -1 -0 3 3 1 1 2 1 1 1 1 1 2 1 0 -0 -0 -0 0 1 1 1 1 1 0 -0 -0 -0 0 0 1 1 0 1 1 -0 -0 1 2 1 0 -1 0 1 1 0 1 1 1 -0 -1 -0 1 1 -0 -1 nan
nan -2 -0 0 -1 -0 -1 -1 1 2 1 1 2 2 1 1 1 1 1 2 1 0 -0 -0 0 1 1 1 1 0 -0 -1 -1 -0 0 1 1 1 0 1 0 -0 0 1 1 1 1 0 0 0 0 0 1 0 0 0 -0 0 1 0 1 3 nan
nan -3 -1 1 -0 -1 -1 -1 -1 0 0 1 1 2 2 1 1 1 1 1 1 1 0 -0 -0 0 0 0 -0 -0 -0 -0 -1 -0 1 1 1 0 0 1 1 1 1 1 1 1 1 1 1 0 -0 -0 -0 -1 -0 1 2 2 1 1 1 2 nan
nan -2 -2 0 1 -1 -1 -0 -1 -1 -0 -0 -0 1 1 1 1 1 1 1 1 1 1 0 -0 -1 -1 -0 -0 -0 0 0 1 1 1 0 1 1 2 1 1 1 1 1 0 0 1 1 0 -0 -1 -1 -1 -1 -1 0 2 2 2 1 -0 -0 nan
nan -1 -2 -1 0 -0 -1 -0 -0 -0 -0 -1 -1 0 1 1 1 1 1 1 1 1 1 1 0 -1 -2 -1 -0 0 1 1 2 2 1 -0 1 2 1 1 1 2 2 1 -0 -1 -0 -0 -1 -1 -1 -1 -1 -0 0 0 1 1 2 1 1 1 nan
nan -1 -2 -1 -0 -1 -1 -1 -0 -1 -1 -1 -1 -0 0 1 1 2 1 0 1 1 1 1 1 -0 -1 -1 -0 1 1 1 2 3 2 1 0 -0 1 2 2 2 1 1 0 -1 -2 -3 -2 -2 -1 -1 -0 0 1 1 1 1 1 1 1 1 nan
nan -2 -2 -1 -1 -1 -1 -1 -1 -1 -1 -1 -1 -0 -0 0 1 2 1 -0 0 1 1 1 1 0 -1 -1 -1 1 1 1 2 3 2 1 0 0 1 2 2 1 0 0 0 -1 -3 -4 -3 -2 -1 -0 1 1 1 0 -0 0 0 1 1 2 nan
nan -2 -2 -1 -1 -1 -1 -1 -1 -2 -1 -1 -1 -0 -0 -0 0 1 1 0 -0 0 1 1 1 1 -1 -2 -1 1 1 1 1 1 0 0 0 0 1 1 0 0 1 0 -1 -1 -3 -4 -3 -1 0 1 1 1 -0 -1 -1 -1 -0 1 1 2 nan
nan -1 -1 -1 -1 -1 -1 -1 -1 -1 -1 -1 -1 -0 -0 -0 -0 0 1 1 0 1 1 1 1 1 -1 -1 -1 1 1 1 1 0 0 0 0 0 1 1 1 1 0 -0 -1 -2 -3 -2 -1 1 1 1 1 -0 -1 -2 -2 -1 -1 -0 1 1 nan
nan -1 -1 -1 -1 -1 -1 -1 -1 -1 -1 -1 -1 -1 -0 -0 -0 0 1 1 1 1 1 1 1 0 -0 -1 -0 0 0 1 1 0 -0 -0 -0 0 1 1 1 1 0 -1 -1 -1 -1 0 1 1 1 1 0 -1 -1 -1 -1 -1 -0 0 1 0 nan
nan -1 -1 -1 -1 -1 -1 -1 -1 -1 -1 -1 -1 -1 -0 -0 -0 -0 0 1 1 1 1 1 0 0 -0 -0 -0 -0 -0 -0 -0 -0 -1 -0 0 0 1 1 1 1 0 -0 -1 -0 0 1 1 0 0 0 0 -0 -1 -1 -0 0 0 1 2 -1 nan
nan -0 -0 0 -0 -0 -1 -1 -1 -1 -1 -1 -1 -1 -0 -0 -0 -0 -0 0 1 1 1 0 0 -0 -0 -1 -1 -1 -1 -1 -0 -0 -0 -0 0 0 1 1 1 0 -0 0 0 0 1 1 1 0 1 1 0 -0 -0 -0 0 0 1 2 1 -1 nan
nan 0 0 0 0 -0 0 0 -0 -1 -0 -1 -1 -1 -0 -0 -0 0 0 0 1 1 1 0 -0 -1 -1 -1 -1 -1 -1 -1 -0 -0 0 0 0 0 0 0 0 0 0 1 1 1 1 1 0 1 1 1 0 0 1 1 0 0 1 0 -1 -2 nan
nan 0 0 1 0 0 0 0 -0 -0 -0 -0 -1 -1 -0 -0 -0 0 0 0 1 0 -0 -1 -1 -1 -1 -1 -1 -1 -1 -0 0 0 1 1 0 0 0 0 0 0 1 1 1 1 1 1 1 1 1 1 1 1 1 1 1 0 -0 -1 -1 -1 nan
nan 0 0 0 1 0 0 0 -0 -1 -0 0 -0 -0 -0 -0 -0 -0 0 0 0 -0 -1 -2 -1 -1 -1 -1 -1 -1 -0 0 1 0 1 1 0 -0 -0 -0 0 1 1 1 1 1 1 1 1 1 0 1 1 1 0 0 1 0 -0 -1 -1 -1 nan
nan 0 0 0 0 0 1 1 0 -0 -0 0 0 -0 -0 -0 -0 -0 -0 -0 -0 -1 -1 -1 -1 -1 -0 -0 -0 0 0 0 0 0 0 0 0 0 0 0 1 1 1 1 0 0 1 1 1 1 0 1 1 1 1 1 1 1 0 0 -1 -1 nan
nan -0 -0 0 0 0 0 0 0 0 0 0 0 0 -0 -0 -0 -0 -0 -0 -1 -1 -1 -1 -0 -0 0 0 0 0 0 -0 -0 -0 0 0 0 0 0 1 1 0 0 0 0 0 1 0 1 1 0 0 1 1 1 1 0 0 0 -0 -1 -0 nan
nan -0 -1 -0 0 0 0 0 0 -0 -0 0 0 0 0 0 -0 -0 -0 -1 -1 -1 -0 -0 -0 0 0 0 -0 -0 -0 -0 -0 0 0 0 0 0 1 1 0 -0 -0 0 1 1 0 1 1 1 1 1 1 1 1 0 0 0 -0 -0 0 1 nan
nan nan nan nan nan nan nan nan nan nan nan nan nan nan nan nan nan nan nan nan nan nan nan nan nan nan nan nan nan nan nan nan nan nan nan nan nan nan nan nan nan nan nan nan nan nan nan nan nan nan nan nan nan nan nan nan nan nan nan nan nan nan nan
Wind_Speed
44 43 43 43 42 41 39 39 40 42 43 45 46 47 47 47 47 48 47 48 48 49 48 47 46 46 45 46 46 44 43 42 40 37 36 36 35 34 33 32 31 32 30 28 27 28 28 28 28 29 28 27 26 24 24 24 24 24 24 24 24 23 23
44 43 43 43 42 41 40 40 40 41 42 44 45 46 47 48 48 48 48 48 49 49 48 47 46 46 45 46 46 45 44 42 40 38 37 37 37 35 34 32 31 32 32 30 28 28 29 29 29 30 29 29 29 27 26 26 25 24 24 24 24 24 23
44 43 43 43 43 42 42 42 41 40 41 42 43 44 46 48 49 49 49 49 50 49 48 47 46 46 45 46 46 46 45 43 41 39 38 38 37 36 34 33 32 32 33 32 29 28 28 29 29 30 29 29 29 29 28 27 27 26 26 25 25 25 24
44 44 44 44 44 43 43 43 42 41 41 41 42 43 44 46 48 49 49 48 48 48 47 47 46 46 45 45 46 46 45 44 42 41 40 39 38 37 35 34 33 33 32 33 31 29 28 29 30 30 29 29 29 29 29 28 28 28 28 27 26 26 25
43 44 44 45 45 44 43 43 42 42 42 41 41 41 42 44 46 47 47 47 46 46 46 46 45 45 45 46 47 47 46 45 44 42 41 39 38 38 36 35 34 33 32 33 34 31 29 29 30 30 30 29 29 30 30 29 29 29 29 28 27 27 27
42 43 44 44 44 44 44 43 43 43 43 42 41 40 41 43 44 46 46 46 45 45 45 45 45 45 45 46 46 46 45 45 44 43 41 40 39 38 37 36 34 33 33 34 35 34 31 30 29 31 30 29 29 32 31 30 30 29 28 28 29 28 28
42 43 43 44 44 44 44 44 44 44 44 43 42 41 41 42 43 44 45 45 44 44 44 44 44 45 45 46 45 45 44 44 43 42 41 39 39 38 37 37 35 34 34 35 35 35 34 31 29 30 31 28 29 33 34 31 31 31 29 28 30 30 28
41 42 43 44 45 45 45 45 46 46 45 45 44 43 42 42 43 44 44 44 44 43 43 43 43 44 45 45 45 44 44 43 42 41 40 40 39 38 38 38 37 36 35 35 35 35 35 33 31 30 30 29 29 33 34 31 30 31 30 29 30 31 29
39 41 43 44 45 46 46 47 47 47 47 46 45 45 44 43 43 44 44 44 43 42 42 43 43 44 44 44 44 44 43 43 42 42 41 41 40 39 39 39 38 37 36 36 36 36 35 34 34 32 29 29 31 31 32 30 30 32 31 30 31 31 29
39 41 42 43 44 46 47 48 48 48 47 47 46 45 45 44 44 44 43 43 43 43 42 42 43 43 43 44 44 44 44 43 43 43 42 41 40 39 39 40 39 38 37 36 37 37 35 35 36 33 30 30 30 29 30 30 30 32 31 30 32 33 30
39 41 42 43 44 45 46 47 48 47 47 47 47 46 45 44 45 45 44 44 44 44 43 42 42 43 43 44 44 45 45 44 43 43 43 42 41 41 41 41 40 39 38 37 37 36 35 36 37 34 30 30 30 29 29 29 29 31 31 31 33 34 31
37 39 40 41 43 44 45 46 46 46 47 47 47 46 45 44 44 45 46 45 45 44 43 42 42 42 43 43 44 45 44 44 44 44 43 42 41 42 42 41 41 40 38 37 37 36 37 37 36 34 32 31 29 28 28 28 29 31 32 32 33 34 32
35 36 37 39 41 42 43 44 44 45 46 46 47 46 45 44 44 45 46 47 46 45 44 44 43 43 43 43 43 43 44 43 43 43 42 41 42 43 43 42 41 40 39 38 37 38 39 37 36 35 33 30 28 28 28 28 30 31 32 33 34 35 34
36 35 36 36 38 40 41 42 42 43 44 45 46 46 45 45 45 46 47 47 47 46 45 45 43 43 43 42 42 43 43 43 42 41 41 42 43 44 44 43 42 41 40 38 38 39 40 37 35 35 33 29 28 29 29 29 30 31 33 34 35 36 35
38 38 37 36 36 38 39 40 40 41 42 43 44 44 44 45 47 47 48 48 47 46 45 45 44 43 42 41 40 41 41 41 40 40 41 43 44 44 44 44 44 41 39 37 37 39 39 37 34 33 32 30 28 29 30 30 31 32 33 35 36 38 38
39 39 40 38 37 37 39 39 39 40 41 41 41 41 41 43 47 48 49 48 48 46 46 45 44 43 42 41 39 39 38 38 38 39 41 43 44 44 44 44 43 40 37 36 36 37 38 36 34 32 32 30 29 30 31 31 32 34 34 36 39 41 41
38 39 40 40 40 39 40 39 37 37 39 39 39 40 40 42 45 48 49 49 48 46 45 45 44 43 42 41 40 38 37 37 37 39 42 43 43 43 44 44 41 38 36 35 35 37 37 36 34 32 32 30 30 31 31 32 35 36 35 37 40 42 41
39 39 39 40 40 40 40 40 37 35 36 37 37 38 39 41 44 47 49 49 48 46 45 45 43 42 41 40 40 38 36 36 38 40 42 42 42 43 44 43 39 36 35 35 35 37 36 36 35 33 32 31 31 32 32 35 37 36 35 37 40 41 40
38 39 39 39 39 39 39 39 37 34 33 34 34 35 38 40 43 47 49 49 48 47 45 44 43 41 40 39 38 37 36 36 38 40 42 42 42 43 44 41 36 35 35 35 35 36 35 35 35 33 32 32 32 32 33 35 36 35 35 37 39 39 38
37 39 39 38 38 38 38 38 37 34 32 32 31 31 34 39 43 46 48 48 47 46 45 44 43 42 39 37 36 36 36 36 38 40 41 41 42 43 41 36 33 33 34 34 34 34 34 33 33 32 32 33 32 33 33 33 35 36 37 38 39 39 39
35 37 38 38 37 37 38 37 37 35 32 31 30 29 30 36 41 44 45 44 44 44 44 43 43 41 39 36 35 35 36 37 38 40 40 41 41 40 35 31 30 31 31 32 33 33 33 33 33 32 33 33 33 33 32 32 34 36 37 39 40 41 42
34 34 36 36 36 36 37 37 36 35 33 32 31 29 28 32 38 41 42 42 41 40 40 40 39 38 36 32 31 32 34 36 37 38 39 39 37 34 31 29 30 31 30 31 33 33 34 34 34 34 34 34 34 33 31 31 33 34 37 39 41 42 44
32 32 33 35 35 35 35 36 36 35 33 32 31 30 28 29 32 37 41 42 41 40 38 37 35 32 29 28 28 30 31 33 34 33 32 32 31 30 29 29 30 31 32 33 34 34 35 35 35 34 34 34 33 31 29 29 31 32 34 36 38 39 41
31 30 32 33 34 34 34 34 35 34 32 31 30 29 28 28 29 33 38 41 41 40 40 37 34 30 27 26 28 30 30 31 31 31 30 29 29 28 28 30 32 33 34 35 36 36 37 37 35 34 33 32 31 29 28 28 28 29 31 33 34 35 36
30 30 30 31 32 33 33 33 34 33 31 29 28 28 28 27 27 29 34 38 39 38 39 39 36 32 29 27 29 31 32 32 31 31 30 29 29 29 30 33 35 36 36 37 38 38 38 37 35 33 32 31 29 28 29 29 28 28 29 31 33 34 35
29 29 29 30 31 31 31 31 33 33 31 29 28 28 27 26 27 27 30 36 37 35 35 36 36 33 31 30 31 33 33 32 32 30 29 28 28 30 32 34 36 37 38 39 39 38 38 37 35 33 31 31 30 30 31 30 30 30 31 32 34 35 36
28 28 29 29 29 29 29 29 31 32 31 29 28 27 26 26 26 27 28 34 38 36 32 33 34 34 32 32 33 32 32 32 31 30 29 29 30 32 34 35 36 37 38 39 39 38 38 37 35 34 33 32 33 33 33 31 31 32 33 34 34 36 38
27 28 28 29 29 29 28 28 29 29 29 28 26 25 25 25 26 27 28 32 37 39 35 33 33 34 34 34 33 33 33 33 33 32 31 31 32 34 34 35 35 36 37 37 37 37 37 37 36 36 35 35 35 35 34 32 32 32 33 33 35 37 39
27 27 27 27 28 27 28 28 27 26 26 26 25 23 23 23 22 23 26 28 33 38 39 37 36 36 36 36 35 34 34 34 33 33 33 33 34 35 35 35 35 36 36 36 35 36 36 36 36 36 36 35 35 35 34 32 32 32 33 33 36 38 40
26 25 24 24 25 25 25 25 25 25 24 24 24 23 22 20 19 19 21 24 29 34 39 40 39 39 38 36 34 33 33 33 34 34 34 35 35 35 35 34 34 34 34 33 33 34 34 34 35 35 35 35 35 34 33 33 33 33 34 35 37 39 39
24 23 21 21 22 22 21 22 23 24 22 21 21 20 19 17 16 15 15 18 23 30 34 36 36 36 35 33 32 32 32 33 34 35 36 35 35 34 33 33 33 32 32 31 31 32 32 32 33 33 33 33 33 33 33 34 34 35 35 36 37 38 39
23 23 22 19 18 19 19 18 19 20 18 16 17 17 14 12 12 12 12 13 18 24 28 29 30 31 30 30 31 31 32 33 34 35 34 33 33 32 32 32 31 30 30 31 31 31 31 31 31 31 31 31 32 32 33 33 34 35 35 36 36 37 38
23 23 22 21 19 18 17 16 16 17 15 13 12 13 12 11 11 11 12 13 16 20 23 24 26 27 28 29 30 31 31 32 32 31 31 30 31 31 31 30 29 28 29 30 30 30 31 31 31 31 31 31 31 31 32 33 33 33 33 34 36 36 37
23 23 23 22 20 18 17 16 15 16 14 11 11 12 12 12 12 12 13 15 17 19 21 23 25 26 27 28 29 29 29 29 29 28 28 28 29 29 28 28 28 28 29 29 29 30 30 31 31 31 31 32 32 32 32 32 32 32 33 34 35 36 36
24 23 23 23 21 19 17 16 15 15 15 14 14 14 13 14 15 15 16 18 19 20 22 23 25 26 26 26 27 27 27 27 27 27 27 26 26 26 26 26 27 27 28 27 27 29 29 29 30 31 31 31 31 31 32 32 32 32 33 33 34 35 35
26 24 23 23 21 20 18 16 15 15 15 15 16 15 15 16 17 18 18 20 21 22 22 23 24 24 25 25 25 25 25 25 25 25 25 25 25 25 25 26 26 26 26 26 27 28 29 29 29 30 29 29 30 30 31 31 31 32 33 33 34 34 34
Wind_Direction
276 276 275 273 271 270 269 266 261 257 253 251 248 246 246 246 247 247 248 248 249 249 249 248 248 248 248 249 250 249 249 248 248 247 247 248 247 246 247 247 248 252 252 250 251 255 258 262 266 268 270 272 272 271 269 268 266 263 260 257 256 255 255
275 275 274 273 273 272 272 269 264 259 255 252 250 248 247 246 246 246 247 247 248 249 249 249 249 249 248 249 250 249 249 248 247 247 247 248 248 247 247 248 249 252 253 251 250 251 255 259 263 267 270 273 276 277 275 274 272 270 267 263 260 258 257
274 275 274 274 274 273 272 270 266 262 258 254 252 250 249 248 248 248 248 248 249 250 250 250 250 249 248 248 249 249 249 248 247 247 247 248 248 248 248 248 249 251 254 255 252 250 252 256 258 262 266 269 272 275 276 277 277 275 272 270 267 264 261
273 274 274 274 274 273 272 271 268 265 261 258 254 252 251 251 251 251 251 251 252 252 252 251 251 250 249 248 248 249 248 248 248 247 247 247 248 249 249 249 250 251 254 257 256 252 251 255 257 260 262 266 269 271 274 275 276 276 275 273 272 269 266
272 273 273 274 274 274 273 272 271 268 265 261 258 255 253 252 253 253 253 253 253 253 253 253 252 252 250 249 248 248 248 248 248 247 247 247 248 250 250 250 251 251 252 255 258 257 253 253 257 259 261 264 268 270 272 274 275 275 276 275 274 271 269
272 273 273 274 275 274 273 273 272 270 267 265 262 258 255 254 254 254 254 254 253 253 253 253 252 251 250 249 248 248 248 249 249 248 247 247 248 250 251 251 251 252 252 254 257 259 257 254 255 258 261 263 268 270 271 272 274 275 276 277 275 272 270
273 273 274 274 274 273 273 273 272 270 268 266 264 261 258 255 255 254 254 254 253 253 253 252 251 250 250 249 249 248 248 248 248 248 248 248 248 249 250 251 251 251 252 254 256 258 259 258 256 257 259 261 264 268 270 272 275 276 276 277 276 274 273
274 274 274 273 272 272 272 271 270 268 267 266 264 262 259 257 256 255 255 255 254 253 253 252 251 250 250 249 248 248 247 247 248 248 248 248 247 247 249 250 250 251 252 253 256 258 260 261 259 256 258 259 260 264 269 274 277 278 277 276 277 277 276
276 274 273 272 272 271 270 269 268 267 267 266 265 263 262 260 258 256 256 256 255 254 253 252 251 250 250 249 248 247 246 246 246 246 247 247 247 248 248 249 250 251 251 252 255 257 258 260 260 259 258 259 259 262 268 273 276 277 277 278 278 277 278
276 274 273 273 273 272 270 268 268 267 267 266 265 264 263 262 261 259 258 257 256 255 253 252 252 251 250 249 248 246 245 244 244 245 246 247 247 248 248 249 250 250 251 252 254 257 259 260 261 261 260 260 261 263 266 270 273 276 279 280 279 278 278
277 275 274 273 273 272 271 270 269 268 267 266 265 264 263 263 262 261 259 258 256 255 254 253 252 251 250 249 247 245 244 244 244 245 246 247 248 248 248 248 250 251 252 253 255 257 259 260 262 263 263 262 262 263 265 269 272 275 276 277 277 278 278
280 278 276 274 273 272 272 272 271 269 267 266 265 264 263 262 262 261 260 259 257 256 255 254 253 252 251 250 248 247 245 244 245 245 246 248 248 249 249 249 249 251 252 253 255 257 257 259 262 264 264 264 265 267 268 269 270 271 273 274 275 276 278
285 283 280 277 275 274 274 273 272 270 267 266 264 264 264 263 261 261 260 259 258 257 256 255 254 252 251 250 249 247 246 244 245 246 246 247 247 248 249 248 249 250 251 252 254 255 257 259 262 264 265 267 269 270 269 268 268 270 272 273 274 276 277
288 286 283 280 278 277 276 275 273 270 268 266 264 264 264 264 263 261 260 259 258 257 256 255 255 254 253 251 249 247 245 244 244 245 245 246 246 247 248 249 250 250 250 251 253 255 258 260 261 265 267 269 269 269 268 268 269 270 272 273 274 274 274
292 289 286 283 280 278 277 276 274 271 269 266 264 263 262 263 264 261 259 259 257 256 255 255 255 255 254 252 250 247 246 246 245 245 245 245 246 247 249 251 251 252 252 253 254 257 260 261 262 264 266 267 266 266 267 267 268 267 268 269 270 270 270
295 293 290 287 284 280 278 277 274 272 270 267 265 262 257 258 261 261 259 258 257 255 254 253 253 253 253 253 250 247 246 245 244 244 245 245 246 248 249 250 252 253 253 253 254 256 259 260 260 260 262 262 262 262 262 263 264 264 264 266 267 268 269
296 294 292 289 287 283 281 279 276 274 272 269 265 260 253 252 256 258 258 257 256 256 254 253 252 252 252 252 250 247 244 243 242 243 243 245 246 248 249 250 251 252 253 253 254 255 256 258 258 257 258 259 259 259 259 258 258 259 261 264 265 268 270
296 294 291 289 287 286 284 282 280 276 273 271 267 260 253 251 252 254 256 255 255 255 254 254 253 252 251 251 250 247 245 242 242 243 244 245 246 248 250 251 251 252 253 252 251 252 254 256 257 256 256 255 255 255 256 256 258 261 261 261 263 266 271
296 294 292 290 288 286 285 284 282 278 275 272 269 261 254 250 248 250 252 252 253 254 254 253 253 252 250 249 248 247 245 244 243 243 244 246 247 249 250 252 253 253 253 251 251 252 253 254 256 257 257 255 252 251 251 254 258 260 260 261 263 266 268
296 294 293 291 290 288 286 285 284 282 278 275 271 263 254 249 247 248 249 250 251 252 252 253 253 252 250 248 247 246 245 244 244 245 246 247 248 251 253 255 255 254 252 252 252 253 254 254 255 255 255 255 254 252 252 254 256 257 258 260 263 265 265
297 295 293 292 291 289 288 287 286 285 282 278 274 267 256 249 246 246 247 248 250 251 252 252 251 251 251 250 248 246 244 244 245 247 248 248 250 254 257 257 256 254 254 254 253 254 254 254 253 252 252 253 254 254 255 257 258 259 258 259 260 262 264
300 297 295 294 292 290 289 289 288 287 285 282 278 272 261 252 248 245 243 245 247 249 250 251 251 251 251 250 248 246 243 244 245 247 250 252 252 254 254 254 255 256 257 257 257 256 256 255 255 256 255 255 256 256 257 257 259 260 261 261 262 262 263
306 302 298 297 295 293 293 292 290 289 288 286 282 277 268 259 252 245 241 241 244 245 248 250 249 248 247 247 247 246 244 243 244 245 245 247 250 252 253 255 257 258 259 260 261 260 259 258 259 259 260 261 262 262 261 259 258 258 258 260 261 261 262
309 306 302 300 298 297 296 295 293 293 292 290 286 281 274 266 256 247 241 241 243 243 244 246 246 243 241 244 247 249 248 247 246 244 238 236 240 246 249 252 255 256 257 258 258 259 259 261 263 264 265 266 268 268 267 263 259 257 256 257 259 260 261
309 307 304 301 299 299 299 297 297 297 296 294 289 284 277 270 260 250 240 239 242 244 242 243 244 242 241 244 246 248 250 249 247 245 241 240 241 242 241 243 247 251 253 254 255 256 259 262 266 268 269 271 272 271 269 267 265 263 262 262 265 266 266
307 306 305 303 301 300 300 299 298 297 297 296 291 285 279 271 263 254 242 236 239 243 241 240 241 240 241 244 246 246 248 250 250 249 248 247 246 245 242 242 242 244 248 251 254 257 261 265 268 269 270 270 270 269 268 270 271 270 269 269 270 272 272
304 303 303 303 302 302 301 299 297 297 298 297 294 290 285 277 267 259 246 236 236 239 238 236 237 238 241 244 246 248 249 251 252 252 252 251 249 248 247 246 245 246 247 250 254 258 263 266 266 266 265 265 264 265 266 268 269 269 269 270 271 271 272
307 302 299 298 297 298 299 297 297 299 300 300 298 293 289 283 273 263 253 241 235 235 235 234 234 237 240 242 245 248 250 252 253 254 254 253 252 251 251 251 251 251 250 251 254 257 260 261 261 261 262 262 262 263 264 265 265 265 266 267 267 267 270
311 307 301 295 292 292 293 294 297 299 300 300 300 297 292 287 280 270 262 251 240 236 234 233 233 236 239 242 246 249 251 253 254 255 254 254 254 254 254 254 254 254 254 255 256 257 258 258 258 259 260 260 260 262 263 263 263 263 264 264 264 266 269
317 314 306 296 291 290 289 288 289 292 294 296 298 299 297 294 288 278 267 256 246 238 235 234 235 237 240 244 248 249 250 251 253 255 255 256 256 257 258 259 259 260 260 260 260 259 259 258 258 258 258 258 258 259 260 260 260 261 262 262 263 266 270
325 323 316 303 295 293 292 289 287 287 290 293 295 297 298 297 291 280 267 255 245 239 236 235 236 239 243 246 247 248 249 250 252 254 256 258 260 261 262 262 263 263 264 264 263 262 261 259 259 258 258 258 258 258 258 257 258 259 260 261 263 266 269
327 328 327 322 311 302 298 297 294 293 293 294 294 296 299 299 291 279 265 251 241 238 237 238 240 242 245 246 247 248 249 251 253 256 259 261 263 264 264 265 265 266 267 266 265 264 263 262 261 261 261 260 259 258 257 257 257 257 258 261 263 265 267
323 323 327 330 327 317 309 303 296 293 293 291 289 290 291 287 278 269 258 247 239 238 240 241 244 246 247 247 248 250 252 254 256 259 262 263 264 266 267 268 269 268 266 264 264 264 264 264 263 263 262 261 260 258 258 258 257 257 258 259 261 263 266
321 320 320 323 325 323 318 312 304 299 298 292 284 283 284 279 270 261 255 250 245 244 246 247 249 250 250 251 253 255 257 260 262 264 265 265 266 267 267 268 267 266 263 263 263 262 262 263 263 263 261 260 259 259 258 257 257 257 257 258 260 263 265
321 320 318 318 319 318 315 311 306 302 300 295 288 283 280 275 269 263 259 257 255 253 253 254 255 257 258 259 261 262 264 266 267 267 268 267 267 267 267 266 266 265 264 263 262 262 263 264 263 262 261 260 259 258 257 257 257 257 258 259 261 262 263
319 318 316 315 316 315 312 309 304 298 295 292 289 285 278 273 271 269 267 266 265 265 265 264 263 264 265 265 266 266 267 267 268 269 269 269 269 269 269 269 268 267 265 264 263 264 266 265 263 261 260 259 259 258 258 259 260 260 261 261 261 261 262
Height
1425 1425 1426 1426 1426 1427 1427 1428 1429 1429 1430 1431 1431 1432 1433 1433 1434 1435 1436 1437 1437 1438 1440 1442 1443 1444 1446 1446 1447 1449 1450 1452 1453 1454 1455 1456 1457 1458 1459 1460 1459 1459 1460 1462 1462 1461 1460 1460 1460 1459 1460 1460 1460 1461 1461 1461 1462 1463 1463 1464 1465 1465 1466
1421 1421 1421 1421 1421 1422 1422 1423 1424 1424 1425 1425 1426 1427 1428 1428 1428 1429 1430 1431 1431 1432 1434 1436 1437 1439 1441 1441 1442 1444 1445 1447 1448 1449 1450 1451 1451 1453 1454 1455 1455 1455 1455 1457 1459 1458 1457 1457 1456 1455 1456 1456 1455 1455 1456 1456 1457 1457 1458 1459 1459 1460 1461
1417 1417 1417 1417 1417 1417 1417 1418 1418 1419 1419 1420 1421 1422 1423 1423 1423 1424 1425 1425 1426 1427 1428 1430 1432 1434 1436 1437 1437 1438 1440 1441 1443 1444 1445 1446 1447 1448 1449 1450 1451 1450 1450 1451 1453 1454 1454 1453 1453 1452 1452 1453 1452 1451 1451 1451 1452 1452 1453 1453 1454 1455 1456
1414 1413 1413 1412 1412 1413 1413 1413 1414 1414 1414 1415 1417 1418 1419 1419 1419 1419 1420 1421 1421 1422 1423 1425 1426 1428 1430 1432 1432 1433 1434 1436 1437 1439 1440 1441 1442 1443 1444 1445 1446 1446 1446 1446 1447 1449 1451 1450 1449 1449 1449 1449 1448 1448 1447 1447 1447 1447 1447 1448 1449 1449 1451
1409 1409 1408 1408 1408 1408 1409 1409 1409 1409 1409 1410 1412 1413 1414 1414 1414 1414 1415 1416 1417 1417 1418 1420 1421 1423 1425 1426 1426 1427 1428 1430 1431 1433 1435 1436 1437 1439 1440 1440 1440 1442 1442 1441 1441 1443 1446 1446 1445 1445 1445 1445 1444 1443 1443 1443 1443 1443 1443 1443 1444 1444 1445
1405 1404 1403 1403 1403 1403 1404 1404 1404 1404 1405 1406 1407 1408 1409 1409 1409 1409 1409 1411 1412 1412 1413 1415 1416 1418 1419 1420 1421 1422 1423 1425 1426 1427 1429 1431 1432 1434 1435 1435 1435 1436 1437 1437 1436 1437 1439 1441 1442 1441 1441 1442 1441 1438 1438 1439 1438 1438 1439 1439 1438 1439 1440
1401 1400 1399 1399 1399 1398 1398 1398 1398 1398 1399 1400 1402 1403 1404 1404 1404 1403 1404 1405 1406 1407 1408 1409 1410 1412 1413 1414 1415 1417 1419 1420 1421 1422 1424 1426 1427 1429 1429 1429 1430 1431 1431 1431 1431 1432 1433 1435 1437 1437 1437 1438 1438 1434 1433 1434 1434 1433 1434 1434 1433 1433 1434
1398 1397 1395 1395 1394 1394 1394 1393 1392 1392 1393 1394 1395 1396 1397 1398 1398 1398 1398 1399 1399 1401 1401 1402 1404 1405 1406 1408 1410 1412 1414 1415 1416 1417 1419 1420 1422 1423 1424 1424 1425 1426 1426 1426 1426 1426 1427 1429 1431 1432 1433 1434 1433 1430 1429 1430 1429 1428 1429 1430 1428 1428 1429
1393 1392 1391 1390 1389 1389 1388 1387 1386 1386 1387 1388 1389 1391 1392 1392 1393 1392 1392 1393 1393 1394 1395 1396 1397 1399 1400 1402 1404 1407 1408 1409 1411 1412 1413 1414 1416 1418 1418 1419 1419 1420 1420 1421 1420 1421 1422 1423 1423 1426 1428 1429 1428 1427 1426 1426 1425 1423 1423 1425 1423 1422 1424
1388 1387 1386 1385 1384 1383 1382 1381 1381 1381 1382 1382 1383 1385 1386 1387 1387 1387 1387 1387 1387 1387 1388 1389 1391 1392 1394 1396 1398 1401 1402 1403 1405 1406 1407 1409 1410 1412 1413 1413 1413 1414 1415 1415 1415 1415 1417 1417 1417 1420 1423 1424 1424 1424 1423 1421 1420 1419 1419 1419 1418 1417 1419
1382 1381 1381 1380 1379 1378 1376 1375 1375 1376 1376 1377 1377 1378 1380 1381 1381 1382 1382 1381 1381 1381 1382 1384 1385 1386 1388 1390 1392 1394 1396 1398 1399 1400 1402 1403 1404 1406 1407 1407 1408 1408 1409 1410 1409 1410 1411 1411 1411 1415 1418 1418 1419 1419 1418 1417 1417 1415 1414 1414 1413 1412 1415
1377 1376 1376 1375 1374 1372 1371 1370 1370 1371 1371 1371 1371 1372 1374 1374 1375 1375 1375 1376 1375 1376 1377 1378 1379 1381 1382 1384 1386 1388 1390 1392 1393 1395 1396 1398 1399 1400 1400 1401 1402 1403 1404 1404 1404 1405 1405 1405 1406 1409 1411 1413 1414 1414 1414 1413 1412 1411 1410 1409 1408 1408 1409
1371 1370 1370 1369 1368 1367 1366 1366 1366 1366 1366 1366 1366 1367 1368 1368 1369 1368 1369 1369 1370 1371 1372 1372 1373 1374 1376 1378 1380 1382 1384 1386 1388 1390 1391 1392 1393 1393 1393 1395 1396 1398 1398 1399 1399 1399 1398 1400 1402 1403 1405 1408 1409 1409 1409 1408 1407 1407 1405 1404 1404 1403 1405
1365 1364 1364 1363 1362 1362 1361 1360 1360 1361 1361 1361 1361 1362 1362 1362 1362 1362 1362 1362 1364 1365 1366 1367 1368 1369 1370 1372 1374 1376 1378 1381 1383 1384 1385 1386 1386 1386 1387 1388 1390 1392 1393 1394 1394 1393 1393 1396 1398 1399 1400 1403 1404 1403 1403 1403 1403 1402 1401 1400 1399 1399 1399
1359 1358 1357 1357 1357 1356 1355 1354 1355 1355 1355 1356 1356 1358 1358 1356 1355 1355 1356 1356 1357 1359 1360 1361 1362 1363 1364 1366 1368 1370 1373 1375 1378 1379 1380 1380 1380 1381 1382 1382 1384 1386 1388 1389 1389 1388 1388 1391 1394 1395 1396 1397 1399 1398 1398 1398 1398 1397 1397 1396 1394 1393 1393
1354 1352 1351 1351 1350 1349 1348 1348 1350 1349 1349 1350 1351 1352 1353 1351 1348 1348 1349 1349 1350 1352 1354 1355 1357 1358 1359 1360 1362 1365 1368 1370 1372 1373 1373 1373 1374 1375 1376 1377 1378 1381 1383 1384 1384 1384 1384 1386 1388 1390 1391 1392 1393 1393 1393 1393 1392 1392 1392 1391 1388 1387 1388
1348 1347 1346 1344 1344 1343 1342 1342 1343 1344 1344 1344 1345 1346 1347 1345 1343 1341 1341 1342 1344 1346 1347 1349 1351 1352 1354 1355 1356 1359 1362 1365 1366 1367 1367 1367 1369 1370 1370 1371 1374 1377 1378 1379 1379 1379 1379 1380 1383 1384 1385 1387 1387 1387 1388 1388 1386 1386 1387 1386 1383 1381 1382
1343 1341 1340 1339 1338 1337 1336 1336 1337 1338 1338 1338 1340 1341 1341 1340 1338 1335 1334 1335 1337 1339 1341 1343 1345 1347 1349 1349 1351 1354 1357 1359 1360 1360 1361 1362 1364 1364 1364 1366 1370 1372 1373 1373 1373 1373 1374 1375 1376 1378 1380 1381 1382 1382 1382 1381 1379 1381 1383 1381 1378 1377 1378
1338 1336 1335 1334 1333 1332 1331 1330 1330 1332 1332 1332 1333 1335 1335 1335 1333 1330 1328 1329 1330 1332 1335 1337 1339 1341 1343 1345 1347 1349 1351 1353 1354 1354 1355 1357 1358 1357 1358 1361 1366 1367 1367 1367 1368 1368 1369 1370 1371 1372 1374 1375 1376 1377 1377 1376 1375 1376 1376 1374 1373 1374 1374
1333 1331 1329 1329 1328 1327 1326 1325 1325 1326 1326 1326 1327 1328 1329 1330 1328 1326 1324 1324 1325 1326 1328 1330 1332 1335 1337 1340 1342 1344 1346 1348 1348 1348 1349 1351 1351 1351 1353 1358 1361 1361 1361 1361 1362 1363 1364 1365 1366 1367 1368 1369 1370 1371 1372 1372 1371 1370 1370 1369 1369 1369 1369
1329 1326 1324 1324 1323 1322 1321 1321 1320 1320 1321 1321 1321 1322 1323 1323 1322 1322 1322 1321 1320 1320 1321 1323 1325 1328 1332 1335 1338 1340 1341 1343 1343 1343 1344 1344 1345 1347 1351 1354 1355 1355 1355 1356 1356 1357 1358 1359 1360 1361 1362 1363 1364 1365 1366 1367 1366 1365 1365 1364 1364 1364 1364
1324 1322 1320 1318 1318 1317 1316 1316 1316 1315 1316 1316 1315 1316 1317 1317 1317 1318 1319 1318 1316 1316 1316 1317 1319 1323 1327 1331 1333 1335 1336 1338 1340 1340 1339 1339 1341 1344 1346 1348 1348 1349 1350 1350 1350 1351 1352 1353 1354 1355 1356 1357 1358 1359 1361 1362 1361 1361 1360 1359 1359 1359 1358
1320 1318 1316 1314 1313 1312 1311 1311 1310 1310 1311 1311 1310 1311 1311 1312 1312 1313 1314 1314 1313 1313 1312 1312 1315 1318 1323 1327 1328 1329 1331 1333 1335 1336 1336 1336 1337 1339 1341 1342 1343 1343 1344 1344 1345 1345 1346 1347 1348 1349 1350 1351 1352 1354 1356 1357 1357 1357 1356 1355 1355 1354 1354
1317 1315 1312 1310 1309 1308 1307 1306 1306 1306 1306 1306 1306 1305 1306 1307 1307 1309 1310 1310 1310 1310 1310 1310 1311 1314 1318 1322 1324 1325 1326 1328 1330 1332 1333 1334 1334 1336 1337 1337 1337 1338 1339 1339 1339 1339 1339 1340 1342 1344 1345 1346 1347 1349 1350 1351 1351 1351 1351 1351 1350 1350 1350
1314 1312 1309 1307 1305 1304 1303 1302 1301 1301 1302 1302 1302 1301 1301 1302 1303 1304 1306 1306 1306 1306 1307 1307 1308 1311 1314 1318 1319 1320 1321 1322 1324 1326 1329 1331 1332 1332 1332 1333 1333 1333 1334 1333 1333 1333 1334 1335 1337 1339 1340 1341 1343 1343 1343 1344 1345 1345 1345 1345 1344 1343 1343
1311 1309 1307 1305 1302 1301 1300 1299 1298 1297 1297 1298 1298 1297 1297 1297 1298 1299 1301 1303 1302 1303 1303 1304 1305 1307 1310 1313 1314 1315 1316 1317 1319 1321 1324 1326 1327 1327 1327 1328 1328 1329 1328 1328 1328 1329 1330 1331 1333 1335 1336 1337 1337 1337 1337 1338 1339 1339 1339 1339 1338 1337 1336
1309 1307 1305 1302 1300 1298 1297 1296 1295 1294 1294 1294 1294 1293 1293 1293 1293 1294 1296 1298 1298 1299 1300 1301 1302 1304 1307 1308 1310 1311 1312 1313 1314 1316 1318 1320 1321 1321 1321 1322 1323 1324 1324 1324 1325 1325 1326 1327 1329 1330 1331 1331 1332 1332 1333 1334 1334 1334 1333 1333 1333 1332 1330
1306 1304 1302 1300 1298 1296 1294 1293 1292 1291 1290 1290 1290 1290 1289 1289 1289 1290 1291 1293 1294 1295 1297 1298 1299 1300 1302 1304 1306 1307 1308 1308 1310 1311 1313 1315 1316 1316 1317 1317 1318 1319 1319 1320 1321 1321 1322 1323 1324 1324 1325 1326 1326 1327 1328 1329 1329 1329 1329 1329 1329 1326 1325
1303 1301 1299 1297 1296 1294 1292 1290 1289 1289 1288 1287 1287 1287 1286 1286 1286 1286 1287 1289 1291 1292 1293 1294 1295 1296 1297 1299 1302 1303 1304 1304 1305 1307 1308 1309 1310 1311 1312 1312 1312 1313 1313 1315 1316 1316 1317 1318 1319 1319 1320 1321 1321 1321 1323 1324 1324 1324 1325 1325 1324 1321 1320
1302 1299 1297 1294 1292 1292 1290 1288 1287 1286 1286 1285 1284 1284 1283 1283 1283 1283 1284 1285 1287 1288 1289 1290 1291 1293 1294 1296 1298 1299 1300 1300 1301 1302 1303 1304 1305 1306 1306 1307 1307 1307 1308 1310 1311 1311 1311 1312 1313 1314 1315 1316 1316 1317 1318 1319 1319 1320 1320 1320 1318 1317 1316
1301 1298 1295 1292 1290 1288 1288 1286 1285 1284 1283 1283 1282 1281 1281 1281 1280 1280 1280 1282 1283 1284 1285 1286 1288 1290 1291 1293 1295 1295 1296 1297 1297 1297 1298 1299 1300 1301 1301 1302 1302 1303 1304 1305 1305 1305 1306 1307 1308 1309 1310 1311 1311 1312 1313 1314 1314 1315 1315 1314 1313 1312 1311
1298 1296 1294 1291 1289 1286 1285 1284 1282 1281 1281 1280 1280 1279 1279 1279 1278 1278 1279 1279 1280 1281 1282 1284 1285 1287 1288 1290 1290 1291 1292 1293 1293 1294 1295 1295 1296 1296 1296 1297 1298 1299 1299 1299 1300 1300 1301 1302 1303 1304 1305 1306 1307 1307 1308 1308 1309 1309 1309 1309 1308 1307 1307
1296 1294 1292 1290 1288 1286 1284 1282 1281 1280 1279 1279 1278 1278 1278 1278 1278 1278 1278 1278 1279 1279 1280 1282 1283 1284 1285 1286 1286 1287 1288 1289 1290 1291 1292 1292 1292 1291 1292 1293 1294 1295 1295 1294 1295 1295 1296 1297 1298 1299 1300 1301 1301 1302 1302 1303 1303 1304 1304 1304 1303 1303 1302
1294 1292 1290 1288 1287 1285 1283 1281 1280 1279 1278 1277 1277 1277 1276 1277 1277 1277 1277 1277 1278 1278 1279 1279 1280 1280 1281 1282 1283 1284 1285 1286 1287 1287 1288 1288 1288 1288 1288 1289 1289 1290 1290 1290 1290 1291 1291 1292 1293 1294 1295 1295 1296 1296 1297 1297 1298 1298 1299 1299 1298 1298 1298
1291 1289 1288 1286 1285 1283 1282 1280 1279 1278 1277 1276 1276 1276 1275 1275 1275 1275 1275 1275 1276 1276 1276 1277 1277 1277 1278 1279 1280 1281 1282 1282 1282 1283 1283 1283 1284 1284 1284 1285 1285 1285 1285 1286 1286 1287 1287 1288 1289 1289 1290 1290 1291 1291 1292 1292 1293 1293 1294 1294 1294 1293 1293
1288 1287 1286 1284 1283 1281 1280 1279 1277 1276 1276 1275 1274 1274 1274 1273 1273 1273 1273 1273 1273 1274 1274 1274 1274 1275 1276 1276 1277 1277 1278 1278 1279 1279 1279 1279 1280 1280 1280 1280 1280 1281 1281 1282 1282 1282 1283 1284 1284 1284 1285 1286 1286 1286 1287 1287 1288 1289 1289 1289 1289 1289 1289